Regional Weather Roundup
Issued by NWS

Home | Current Version | Previous Version | Text Only | Print | Product List | Glossary On
Versions: 1 2 3 4 5 6 7 8 9 10 11 12 13 14 15 16 17 18 19 20 21 22 23 24 25 26 27 28 29 30 31 32 33 34 35 36 37 38 39 40 41 42 43 44 45 46 47 48 49 50
000
ASUS43 KMKX 181021
RWRWI

WISCONSIN REGIONAL WEATHER ROUNDUP
NATIONAL WEATHER SERVICE MILWAUKEE/SULLIVAN WI
500 AM CDT FRI AUG 18 2017

NOTE: "FAIR" INDICATES FEW OR NO CLOUDS BELOW 12,000 FEET WITH NO
SIGNIFICANT WEATHER AND/OR OBSTRUCTIONS TO VISIBILITY.

WIZ001-002-006>008-014>016-023>028-181100-
NORTHWEST WISCONSIN

CITY           SKY/WX    TMP DP  RH WIND       PRES   REMARKS
SUPERIOR ARPT    N/A     56  56  97 W5        29.82S
ASHLAND        CLOUDY    61  59  93 W6        29.78S
HAYWARD        CLOUDY    59  56  89 CALM      29.82S
SIREN          CLEAR     54  54  98 W3        29.85R
CUMBERLAND     CLEAR     55  54  94 NW5       29.84R
RICE LAKE      CLEAR     57  56  96 W5        29.85R
CHETEK         CLEAR     58  58  98 W6        29.84R
LADYSMITH      CLOUDY    62  59  89 NW10      29.81F
EAU CLAIRE     CLEAR     59  57  93 W7        29.82R
MENOMONIE      CLEAR     60  58  94 W8        29.84R
NEW RICHMOND   CLEAR     55  55  98 W6        29.87R
OSCEOLA        CLEAR     54  54 100 CALM      29.89R
$$

WIZ003>005-009-010-017-018-181100-
NORTH CENTRAL WISCONSIN

CITY           SKY/WX    TMP DP  RH WIND       PRES   REMARKS
MANITOWISH WTR DRIZZLE   58  58 100 NW10      29.77R
ARBOR VITAE    DRIZZLE   59  58  96 NW9       29.76R
WOODRUFF       DRIZZLE   59  58  96 NW9       29.76R
RHINELANDER    CLOUDY    60  60 100 NW10      29.76R
EAGLE RIVER    CLOUDY    59  59  99 NW14G20   29.74R
LAND O LAKES   CLOUDY    59  58  97 NW9       29.76R FOG
PHILLIPS       CLOUDY    60  59  97 NW6       29.78S
TOMAHAWK       DRIZZLE   59  57  93 W7        29.78R
MEDFORD        CLOUDY    60  58  92 NW8       29.78F
MERRILL        CLOUDY    63  61  94 W10       29.77R
$$

WIZ029-030-035-036-043>047-181100-
CENTRAL WISCONSIN

CITY           SKY/WX    TMP DP  RH WIND       PRES   REMARKS
WAUSAU         CLOUDY    62  59  90 NW13G22   29.75R
MOSINEE        CLOUDY    61  59  94 W10G17    29.78R
MARSHFIELD     CLOUDY    62  58  86 NW10      29.78S
STEVENS POINT  CLOUDY    61  60  96 W8        29.78R
WAUPACA        CLOUDY    66  61  83 W8G16     29.75R
WAUTOMA        CLOUDY    65  60  84 W17G24    29.77R
WISC RAPIDS    CLOUDY    63  60  90 NW9       29.79S
CAMP DOUGLAS   CLOUDY    64  60  88 W9        29.80S
$$

WIZ011>013-019>022-031-037>040-048>050-181100-
NORTHEAST WISCONSIN

CITY           SKY/WX    TMP DP  RH WIND       PRES   REMARKS
ANTIGO         CLOUDY    59  59  99 NW12      29.74R FOG
SHAWANO        MOCLDY    64  59  85 W8        29.70R
OCONTO         CLOUDY    63  59  88 W12G18    29.65R
STURGEON BAY   CLOUDY    65  60  84 W12       29.65R
GREEN BAY      CLEAR     62  62 100 W12       29.69R
MANITOWOC      CLOUDY    65  59  81 W14G22    29.69R
APPLETON       CLOUDY    63  57  82 W12       29.72R
CLINTONVILLE   CLOUDY    64  57  77 W13       29.72R
OSHKOSH        CLOUDY    64  61  90 W10G20    29.73R
$$

WIZ032>034-041-042-053>061-181100-
SOUTHWEST WISCONSIN

CITY           SKY/WX    TMP DP  RH WIND       PRES   REMARKS
LA CROSSE      MOCLDY    68  62  81 NW8       29.83R
SPARTA         PTCLDY    60  58  92 W6        29.84R
VIROQUA        CLOUDY    64  64 100 NW5       29.84S
BOSCOBEL       MOCLDY    64  62  93 S6        29.83R
PRAIRIE DU CHI CLEAR     64  58  83 W9        29.84S
PLATTEVILLE    CLEAR     61  61 100 W6        29.84S
$$

WIZ056-057-062-063-064-067-068-181100-
SOUTH CENTRAL WISCONSIN

CITY           SKY/WX    TMP DP  RH WIND       PRES   REMARKS
REEDSBURG      CLOUDY    64  61  90 W7        29.80S
BARABOO/DELLS  CLOUDY    64  57  77 NW7       29.80S
LONE ROCK      CLOUDY    65  64  97 W7        29.81R
MINERAL POINT  CLEAR     63  63 100 W6        29.83R
MADISON        CLOUDY    65  62  90 VRB5      29.79R
MIDDLETON      MOCLDY    64  64 100 W8        29.81R
WATERTOWN      CLOUDY    65  62  89 W10       29.77S
MONROE         CLEAR     63  63 100 W10       29.82R
JANESVILLE     CLEAR     64  64 100 W6        29.79S
$$

WIZ051-052-058>065-066-070>072-181100-
SOUTHEAST WISCONSIN

CITY           SKY/WX    TMP DP  RH WIND       PRES   REMARKS
MILWAUKEE      CLOUDY    69  61  75 W14G20    29.74S
WAUKESHA       CLOUDY    63  59  88 W14G21    29.77R
MILWAUKEE/TIMM CLOUDY    64  55  72 W14G20    29.76R
RACINE         CLOUDY    68  61  78 W8        29.77R
KENOSHA        CLOUDY    65  61  87 W7        29.77R
FOND DU LAC    CLOUDY    66  59  78 W13G20    29.74R
SHEBOYGAN      MOCLDY    65  62  90 W10G18    29.71R
WEST BEND      CLOUDY    64  61  88 W10G20    29.75R
JUNEAU         CLOUDY    64  60  86 W7        29.77S
$$

LSZ147-162-181100-
LAKE SUPERIOR

STATION/POSITION TIME  TEMP    WIND        PRES    WAVE
                       AIR SEA DIR/SP/G            HT/PER
                 (UTC) (F)     (DEG/KT/KT) (MB)    (FT/S)
W MID LAKE BUOY  0950   61 59  290/  8/ 10 1006.7R   3/ 6
DEVILS ISLAND    1000   62     300/ 11/ 12 1008.2R
SAXON HARBOR     0940   64     280/  8/ 13 1008.1R
$$

LMZ867-665-643>646-181100-
LAKE MICHIGAN

STATION/POSITION TIME  TEMP    WIND        PRES    WAVE
                       AIR SEA DIR/SP/G            HT/PER
                 (UTC) (F)     (DEG/KT/KT) (MB)    (FT/S)
S GREEN BAY BUOY 1000   66 71  250/ 16/ 21 1003.9
N MID LAKE BUOY  0950   65 67  280/ 19/ 21 1001.2R   4/ 6
NORTHPORT PIER   0940   65     280/  9/ 14 1002.4R
KEWAUNEE LAKESHO 0954   65     280/  9/ 14 1003.5R
SHEBOYGAN LAKESH 1000   66     260/ 13/ 16 1005.5R
PORT WASHINGTON  0940   68     280/  7/ 12 1007.5R
ATWATER BUOY     0939   69 69  260/ 14/ 16 1007.4R
MILWAUKEE LAKESH 1000   68     290/ 11/ 15   N/A
S MID LAKE BUOY  0950   69 71  310/ 19/ 21 1006.6R   4/ 5
KENOSHA   LAKESH 1000   67     260/  7/ 12 1007.8
$$

TC  - TEMPERATURE IN CELSIUS
VSB - VISIBILITY IN STATUTE MILES
WCI - WIND CHILL INDEX
HX  - HEAT INDEX





USA.gov is the U.S. government's official web portal to all federal, state and local government web resources and services.